Tracking 20040 objects as of 18-Nov-2019
Live streaming from Space Station
objects crossing your sky now

SUCHAI

Track SUCHAI now!
10-day predictions
SUCHAI is classified as:


NORAD ID: 42788
Int'l Code: 2017-036Z
Perigee: 494.3 km
Apogee: 512.1 km
Inclination: 97.3 °
Period: 94.5 minutes
Semi major axis: 6874 km
RCS: Unknown
Launch date: June 23, 2017
Source: Chile (CHLE)
Launch site: SRIHARIKOTA (SRI)

Uplink (MHz):
Downlink (MHz): 437.225
Beacon (MHz): 437.229
Mode: CW
Call sign: SUCHAI
Status: Inactive

aabbcc
Your satellite tracking list
Your tracking list is empty




NASA's NSSDC Master Catalog

Two Line Element Set (TLE):
1 42788U 17036Z   19321.86131586 +.00001211 +00000-0 +54003-4 0  9991
2 42788 097.3336 016.6596 0012918 059.2167 301.0340 15.23235647133518
Source of the keplerian elements: AMSAT